This is the latest recevied weather packets stored in our database for station/object NO4D. If no packets are shown the sender has not sent any weather packets the latest 1 day(s).
| Time | Temp. | Humidity | Pressure | Rain* | Wind** | Luminosity | Snow |
|---|---|---|---|---|---|---|---|
| 1778020045 | 26.11° C | 44% | 1013.8 hPa | 0 mm | 0.89 m/s, 191° | 247 W/m² | - |
| 1778019741 | 26.11° C | 42% | 1013.9 hPa | 0 mm | 1.34 m/s, 238° | 248 W/m² | - |
| 1778019439 | 26.11° C | 41% | 1013.6 hPa | 0 mm | 2.24 m/s, 173° | 249 W/m² | - |
| 1778019135 | 26.11° C | 42% | 1013.6 hPa | 0 mm | 1.34 m/s, 174° | 298 W/m² | - |
| 1778018832 | 26.11° C | 42% | 1013.7 hPa | 0 mm | 1.34 m/s, 141° | 329 W/m² | - |
| 1778018530 | 26.11° C | 41% | 1013.7 hPa | 0 mm | 4.92 m/s, 198° | 356 W/m² | - |
| 1778018228 | 26.67° C | 42% | 1013.7 hPa | 0 mm | 1.34 m/s, 169° | 377 W/m² | - |
| 1778017925 | 26.11° C | 41% | 1013.4 hPa | 0 mm | 2.24 m/s, 198° | 392 W/m² | - |
| 1778017623 | 26.11° C | 41% | 1013.8 hPa | 0 mm | 0.45 m/s, 139° | 392 W/m² | - |
| 1778017320 | 25.56° C | 42% | 1013.7 hPa | 0 mm | 0.89 m/s, 167° | 394 W/m² | - |
| 1778017017 | 25.56° C | 42% | 1013.8 hPa | 0 mm | 0.89 m/s, 218° | 134 W/m² | - |
| 1778016714 | 26.11° C | 40% | 1013.8 hPa | 0 mm | 1.34 m/s, 187° | 209 W/m² | - |
| 1778016410 | 26.67° C | 41% | 1014 hPa | 0 mm | 1.34 m/s, 175° | 124 W/m² | - |
| 1778016108 | 26.67° C | 41% | 1013.8 hPa | 0 mm | 2.24 m/s, 193° | 468 W/m² | - |
| 1778015804 | 26.67° C | 41% | 1013.9 hPa | 0 mm | 1.79 m/s, 216° | 507 W/m² | - |
| 1778015502 | 26.11° C | 42% | 1014.1 hPa | 0 mm | 2.24 m/s, 160° | 377 W/m² | - |
| 1778015198 | 25.56° C | 44% | 1014.1 hPa | 0 mm | 1.34 m/s, 205° | 370 W/m² | - |
| 1778014895 | 25.56° C | 42% | 1014.1 hPa | 0 mm | 1.79 m/s, 156° | 314 W/m² | - |
| 1778014593 | 25.56° C | 42% | 1014.3 hPa | 0 mm | 1.34 m/s, 229° | 277 W/m² | - |
| 1778014291 | 25.56° C | 42% | 1014.3 hPa | 0 mm | 1.34 m/s, 197° | 215 W/m² | - |
| 1778013987 | 25.56° C | 41% | 1014 hPa | 0 mm | 2.68 m/s, 265° | 505 W/m² | - |
| 1778013685 | 26.11° C | 40% | 1014.3 hPa | 0 mm | 4.47 m/s, 239° | 529 W/m² | - |
| 1778013381 | 26.11° C | 41% | 1014.2 hPa | 0 mm | 2.24 m/s, 202° | 440 W/m² | - |
| 1778013079 | 25.56° C | 41% | 1014.1 hPa | 0 mm | 1.34 m/s, 201° | 467 W/m² | - |
| 1778012774 | 25.56° C | 40% | 1014.3 hPa | 0 mm | 0.89 m/s, 202° | 335 W/m² | - |
* Rain latest hour (hover to see other rain measurements)
** Current wind speed in m/s (hover to see current wind gust speed)